Home   Weather   Joinville   Past weeks

Flag for Brazil Past Weather in Joinville, Santa Catarina, Brazil — Yesterday and Last 2 Weeks

Now
64 °F

Light rain. Fog.


Feels Like: 64 °F
Forecast: 69 / 83 °F
Wind: 9 mph from Southeast

Location: Curitiba Aeroporto

Current Time: Jan 21, 2017 at 12:25:42 am

Latest Report: Jan 21, 2017 at 12:00 am


Visibility: 3 mi

Pressure: 30.18 "Hg

Humidity: 94%

Dew Point: 63 °F

Location of JoinvilleLocation

Past Weather in Joinville — Graph

°F

Joinville Temperature Yesterday

Maximum temperature yesterday: 77 °F (at 4:00 pm)
Minimum temperature yesterday: 64 °F (at 12:00 am)
Average temperature yesterday: 68 °F

High & Low Weather Summary for the Past Weeks

 TemperatureHumidityPressure
High88 °F (Jan 9, 4:00 pm)100% (Jan 6, 11:00 pm)30.21 "Hg (Jan 6, 11:00 pm)
Low57 °F (Jan 13, 6:00 am)21% (Jan 14, 5:00 pm)29.74 "Hg (Jan 17, 6:00 pm)
Average71 °F82%30.00 "Hg
* Reported Jan 5 11:00 pm — Jan 20 11:00 pm, Joinville, Weather by CustomWeather, © 2017

Note: Actual official high and low records may vary slightly from our data, if they occured in-between our weather recording intervals... More about our weather records

Advertising

Joinville Weather History for the Previous 24 Hours

Scroll right to see more
 ConditionsComfort  
Time TempWeatherWind HumidityBarometerVisibility
11:00 pm
Fri, Jan 20
64 °FPartly cloudy.6 mph94%30.18 "HgN/A
10:00 pm64 °FPassing clouds.8 mph94%30.18 "HgN/A
9:00 pm66 °FPassing clouds.9 mph88%30.15 "HgN/A
8:00 pm68 °FScattered clouds.12 mph78%30.15 "HgN/A
7:00 pm72 °FScattered clouds.14 mph69%30.12 "HgN/A
6:00 pm73 °FScattered clouds.15 mph65%30.12 "HgN/A
5:00 pm75 °FScattered clouds.14 mph65%30.12 "HgN/A
4:00 pm77 °FPartly sunny.12 mph61%30.15 "HgN/A
3:00 pm75 °FPartly sunny.7 mph61%30.15 "HgN/A
2:00 pm75 °FPartly sunny.6 mph69%30.18 "HgN/A
1:38 pm73 °FBroken clouds.5 mph74%30.18 "HgN/A
1:00 pm72 °FPartly sunny.6 mph73%30.18 "HgN/A
12:00 pm70 °FPartly sunny.8 mph83%30.21 "HgN/A
11:00 am66 °FPartly sunny.9 mph94%30.21 "Hg5 mi
10:00 am66 °FMostly cloudy.7 mph94%30.21 "Hg5 mi
9:00 am64 °FFog.6 mph100%30.18 "Hg3 mi
8:40 am64 °FDrizzle. Fog.5 mph94%30.18 "Hg2 mi
8:00 am64 °FFog.7 mph94%30.18 "Hg3 mi
7:00 am64 °FDrizzle. Low clouds.8 mph94%30.12 "Hg2 mi
6:43 am64 °FLight rain. Low clouds.8 mph94%30.12 "Hg2 mi
6:00 am64 °FLow clouds.8 mph94%30.12 "HgN/A
5:00 am64 °FLow clouds.3 mph94%30.12 "HgN/A
4:00 am64 °FLow clouds.8 mph49%30.12 "HgN/A
3:00 am64 °FLight rain. Low clouds.5 mph94%30.12 "Hg4 mi
2:00 am64 °FLow clouds.12 mph94%30.12 "HgN/A
1:00 am64 °FLow clouds.9 mph94%30.15 "HgN/A
12:00 am64 °FLow clouds.6 mph88%30.18 "HgN/A
Weather by CustomWeather, © 2017

See weather overviewHow to use our weather pages